Starlink 31335

operational
NORAD ID: 58969 Int'l Des: 2024-031 Owner: SPXS Country: US Constellation: starlink
LEOCIRCULAR

About Starlink 31335

Description loading...

Live Position

Loading 3D Globe...

Upcoming Passes

Altitude History

Altitude vs Time

uPlot chart will show altitude changes over time

Two-Line Element Set

1 58969U 24031E 25350.62304026 .00000633 00000-0 33512-4 0 9995
2 58969 53.1621 319.8142 0001328 90.2803 269.8350 15.30195682103851
Epoch: Dec 16, 2025 • Age: 18 hours

Current Status

Altitude 477.5 km
Velocity 7.63 km/s
Sub-Earth Point -7.29°S, 79.73°W
Launch Date Feb 15, 2024
Age 1.8 years
Type internet

Technical Details

Classification Payload
Mass 730.00 kg
Dry Mass 700.00 kg
Total Mass 730.00 kg
Length 0.30 m
Diameter 4.10 m
Span 29.00 m
Shape Box + pan
Manufacturer SPXS
Bus Type Starlink V2M
Phase Status In Orbit
Owner/State SPXS/US

Large Constellations

Loading constellations...